Regional Weather Roundup
Issued by NWS

Home | Current Version | Previous Version | Graphics & Text | Print | Product List | Glossary Off
Versions: 1 2 3 4 5 6 7 8 9 10 11 12 13 14 15 16 17 18 19 20 21 22 23 24 25 26 27 28 29 30 31 32 33 34 35 36 37 38 39 40 41 42 43 44 45 46 47 48 49 50

000
ASUS43 KBIS 042010
RWRND

NORTH DAKOTA REGIONAL WEATHER ROUNDUP
NATIONAL WEATHER SERVICE BISMARCK ND
300 PM CDT TUE AUG 04 2015

NOTE: "FAIR" INDICATES FEW OR NO CLOUDS BELOW 12,000 FEET WITH NO
SIGNIFICANT WEATHER AND/OR OBSTRUCTIONS TO VISIBILITY.


NDZ001>003-009>011-017-042100-
NORTHWEST NORTH DAKOTA

CITY           SKY/WX    TMP DP  RH WIND       PRES   REMARKS
WILLISTON      SUNNY     86  51  29 SE12      29.93S
MINOT          SUNNY     82  48  30 VRB3G18   29.96F
MINOT AFB      SUNNY     82  48  30 SE8       29.96S
$$

NDZ018>021-031>035-040>046-042100-
SOUTHWEST NORTH DAKOTA

CITY           SKY/WX    TMP DP  RH WIND       PRES   REMARKS
BISMARCK       MOSUNNY   85  53  33 S8        29.96F
DICKINSON      SUNNY     85  54  34 SE15G23   29.94F
GARRISON         N/A     80  55  42 VRB7      29.96F
HETTINGER ARPT MOSUNNY   85  56  37 SE17      29.97S
$$

NDZ004>008-012>016-024-026-027-054-042100-
NORTHEAST NORTH DAKOTA

CITY           SKY/WX    TMP DP  RH WIND       PRES   REMARKS
GRAND FORKS    MOSUNNY   76  54  46 VRB5      30.00F
GRND FRKS AFB  SUNNY     75  53  45 VRB1      30.01F
DEVILS LAKE    SUNNY     75  48  38 SE3       30.00F
$$

NDZ022-023-025-028>030-036>039-047>053-042100-
SOUTHEAST NORTH DAKOTA

CITY           SKY/WX    TMP DP  RH WIND       PRES   REMARKS
FARGO          SUNNY     80  52  37 N9        29.99S
JAMESTOWN      SUNNY     78  52  40 NE6       30.00S
$$



USA.gov is the U.S. government's official web portal to all federal, state and local government web resources and services.